FW7504 Weather Reports


time (UTC)temp
F
wind
direction
speed
knots
gust
knots
rain 1hr
in
rain 24hr
in
rain mn
in
humidity
%
barometer
mb
20260509192052 74 0 0.9 3.5 0.00 0.00 0.00 65 1012.1
20260509191606 74 360 0.0 1.7 0.00 0.00 0.00 67 1012.0
20260509191055 74 360 0.0 1.7 0.00 0.00 0.00 65 1012.1
20260509190552 74 0 0.0 2.6 0.00 0.00 0.00 65 1012.2
20260509185552 74 360 0.9 2.6 0.00 0.00 0.00 63 1012.3
20260509185052 74 0 0.0 2.6 0.00 0.00 0.00 64 1012.5
20260509184602 74 0 0.0 1.7 0.00 0.00 0.00 64 1012.4
20260509184049 74 0 0.0 2.6 0.00 0.00 0.00 62 1012.5
20260509183552 74 0 0.0 2.6 0.00 0.00 0.00 64 1012.4
20260509183056 74 360 0.0 3.5 0.00 0.00 0.00 64 1012.4
20260509182552 74 360 0.9 3.5 0.00 0.00 0.00 63 1012.6
20260509182051 74 360 0.0 5.2 0.00 0.00 0.00 64 1012.5
20260509181602 74 360 0.9 5.2 0.00 0.00 0.00 64 1012.8
20260509181049 74 360 1.7 4.3 0.00 0.00 0.00 63 1012.3
20260509180552 74 360 0.0 3.5 0.00 0.00 0.00 65 1012.4
20260509180059 74 0 0.0 3.5 0.00 0.00 0.00 64 1012.3
20260509175552 74 360 0.9 3.5 0.00 0.00 0.00 62 1012.2
20260509175052 74 360 0.9 3.5 0.00 0.00 0.00 62 1012.2
20260509174604 74 360 0.9 3.5 0.00 0.00 0.00 62 1012.3
20260509174052 74 360 0.0 3.5 0.00 0.00 0.00 63 1012.2
20260509173551 74 360 0.0 4.3 0.00 0.00 0.00 65 1012.4
20260509173110 73 360 1.7 5.2 0.00 0.00 0.00 65 1012.5
20260509172553 74 360 0.9 7.0 0.00 0.00 0.00 66 1012.7
20260509172052 73 360 2.6 7.0 0.00 0.00 0.00 66 1013.0
20260509171604 72 360 1.7 4.3 0.00 0.00 0.00 66 1012.9
20260509171051 72 360 0.9 4.3 0.00 0.00 0.00 68 1013.0
20260509170556 72 360 1.7 4.3 0.00 0.00 0.00 67 1013.0
20260509170057 72 360 0.9 3.5 0.00 0.00 0.00 68 1013.0
20260509165549 71 0 0.9 4.3 0.00 0.00 0.00 68 1013.0
20260509165052 71 0 0.9 4.3 0.00 0.00 0.00 66 1013.2
20260509164557 71 360 2.6 4.3 0.00 0.00 0.00 67 1013.4
20260509164051 71 360 1.7 4.3 0.00 0.00 0.00 67 1013.3
20260509163553 71 0 1.7 4.3 0.00 0.00 0.00 67 1013.3
20260509163108 71 360 0.0 3.5 0.00 0.00 0.00 68 1013.3
20260509162552 70 0 0.9 3.5 0.00 0.00 0.00 70 1013.4
20260509162052 69 0 0.9 3.5 0.00 0.00 0.00 71 1013.3
20260509161606 69 360 0.9 4.3 0.00 0.00 0.00 71 1013.4
20260509161053 68 360 0.9 4.3 0.00 0.00 0.00 74 1013.3
20260509160549 68 360 0.9 4.3 0.00 0.00 0.00 73 1013.4
20260509160101 68 360 1.7 3.5 0.00 0.00 0.00 74 1013.6
20260509155549 67 0 0.0 4.3 0.00 0.00 0.00 76 1013.6
20260509155051 67 0 0.9 4.3 0.00 0.00 0.00 77 1013.7
20260509154623 67 360 0.9 3.5 0.00 0.00 0.00 75 1013.7
20260509154051 66 360 1.7 4.3 0.00 0.00 0.00 75 1013.8
20260509153549 66 360 1.7 4.3 0.00 0.00 0.00 76 1013.9
20260509153052 66 360 0.9 2.6 0.00 0.00 0.00 78 1013.8
20260509152551 66 0 0.0 2.6 0.00 0.00 0.00 79 1013.8
20260509152050 66 360 0.9 2.6 0.00 0.00 0.00 79 1013.8
20260509151554 65 360 0.9 3.5 0.00 0.00 0.00 79 1013.8
20260509151052 65 360 0.9 3.5 0.00 0.00 0.00 79 1013.8
20260509150552 64 360 0.0 2.6 0.00 0.00 0.00 80 1013.9
20260509150052 64 360 0.9 3.5 0.00 0.00 0.00 80 1013.8
20260509145552 64 360 0.9 3.5 0.00 0.00 0.00 79 1013.8
20260509145051 64 360 0.9 3.5 0.00 0.00 0.00 80 1013.9
20260509144609 64 360 1.7 4.3 0.00 0.00 0.00 80 1013.8
20260509144049 64 360 0.9 4.3 0.00 0.00 0.00 80 1014.0
20260509143551 64 360 0.9 3.5 0.00 0.00 0.00 82 1014.0
20260509143055 63 360 0.9 2.6 0.00 0.00 0.00 81 1014.0
20260509142551 63 0 0.9 2.6 0.00 0.00 0.00 82 1013.7
20260509142048 63 0 0.0 2.6 0.00 0.00 0.00 83 1013.6
20260509141555 63 0 0.9 2.6 0.00 0.00 0.00 82 1013.4
20260509141052 63 0 0.0 2.6 0.00 0.00 0.00 83 1013.4
20260509140552 62 360 0.9 2.6 0.00 0.00 0.00 83 1013.2
20260509140107 62 0 0.0 1.7 0.00 0.00 0.00 85 1013.3
20260509135552 62 0 0.0 1.7 0.00 0.00 0.00 85 1013.3
20260509135052 62 360 0.0 1.7 0.00 0.00 0.00 85 1013.0
20260509134555 61 0 0.0 2.6 0.00 0.00 0.00 86 1013.0
20260509134051 61 0 0.0 2.6 0.00 0.00 0.00 85 1013.0
20260509133551 61 360 0.0 1.7 0.00 0.00 0.00 86 1013.0
20260509133101 60 360 0.0 0.9 0.00 0.00 0.00 87 1013.2
20260509132549 60 0 0.0 0.9 0.00 0.00 0.00 87 1013.1
20260509132051 60 360 0.0 0.9 0.00 0.00 0.00 88 1013.2
20260509131602 59 0 0.0 0.9 0.00 0.00 0.00 87 1013.1
20260509131051 59 0 0.0 0.9 0.00 0.00 0.00 88 1013.2
20260509130551 59 0 0.0 0.9 0.00 0.00 0.00 88 1013.4
20260509130106 59 0 0.0 0.9 0.00 0.00 0.00 88 1013.3
20260509125552 58 0 0.0 0.9 0.00 0.00 0.00 89 1013.4
20260509125052 58 0 0.0 0.9 0.00 0.00 0.00 89 1013.4
20260509124600 58 0 0.0 0.9 0.00 0.00 0.00 89 1013.4
20260509124052 58 0 0.0 0.9 0.00 0.00 0.00 90 1013.4
20260509123552 57 360 0.0 0.0 0.00 0.00 0.00 90 1013.4
20260509123052 57 0 0.0 0.0 0.00 0.00 0.00 90 1013.2
20260509122551 57 0 0.0 0.0 0.00 0.00 0.00 90 1013.2
20260509122051 57 0 0.0 0.0 0.00 0.00 0.00 89 1013.3
20260509121601 56 0 0.0 0.0 0.00 0.00 0.00 89 1013.2
20260509121052 56 0 0.0 0.0 0.00 0.00 0.00 89 1013.0
20260509120552 56 0 0.0 0.0 0.00 0.00 0.00 89 1013.2
20260509120055 56 0 0.0 0.0 0.00 0.00 0.00 90 1013.1
20260509115548 56 0 0.0 0.0 0.00 0.00 0.00 90 1013.0
20260509115049 56 0 0.0 0.0 0.00 0.00 0.00 90 1013.0
20260509114552 56 0 0.0 0.0 0.00 0.00 0.00 89 1012.9
20260509114048 56 0 0.0 0.0 0.00 0.00 0.00 89 1012.9
20260509113549 56 0 0.0 0.9 0.00 0.00 0.00 89 1012.8
20260509113058 56 0 0.0 0.9 0.00 0.00 0.00 89 1012.8
20260509112554 56 0 0.0 0.0 0.00 0.00 0.00 89 1012.9
20260509112048 56 0 0.0 0.0 0.00 0.00 0.00 89 1012.7
20260509111602 56 0 0.0 0.0 0.00 0.00 0.00 89 1012.7
20260509111052 56 0 0.0 0.0 0.00 0.00 0.00 89 1012.8
20260509110551 56 0 0.0 0.9 0.00 0.00 0.00 89 1012.8
20260509110055 55 0 0.0 0.9 0.00 0.00 0.00 89 1012.8
20260509105551 55 0 0.0 0.0 0.00 0.00 0.00 89 1012.7
20260509105049 55 0 0.0 0.0 0.00 0.00 0.00 89 1012.7
20260509104551 55 0 0.0 0.0 0.00 0.00 0.00 89 1012.5
20260509104049 55 0 0.0 0.0 0.00 0.00 0.00 88 1012.7
20260509103551 55 0 0.0 0.0 0.00 0.00 0.00 88 1012.5
20260509103053 55 0 0.0 0.0 0.00 0.00 0.00 89 1012.5
20260509102548 55 0 0.0 0.0 0.00 0.00 0.00 89 1012.5
20260509102049 55 0 0.0 0.0 0.00 0.00 0.00 89 1012.8
20260509101558 55 0 0.0 0.0 0.00 0.00 0.00 89 1012.6
20260509101051 55 0 0.0 1.7 0.00 0.00 0.00 89 1012.6
20260509100552 55 0 0.0 1.7 0.00 0.00 0.00 89 1012.7
20260509100054 55 0 0.0 1.7 0.00 0.00 0.00 89 1012.7
20260509095554 55 0 0.0 0.0 0.00 0.00 0.00 89 1012.5
20260509095052 55 0 0.0 0.9 0.00 0.00 0.00 89 1012.4
20260509094552 55 0 0.0 0.9 0.00 0.00 0.00 89 1012.4
20260509094051 55 0 0.0 0.0 0.00 0.00 0.00 89 1012.3
20260509093551 55 0 0.0 0.0 0.00 0.00 0.00 90 1012.3
20260509093055 55 0 0.0 0.0 0.00 0.00 0.00 90 1012.4
20260509092551 54 0 0.0 0.0 0.00 0.00 0.00 90 1012.6
20260509092052 54 0 0.0 0.0 0.00 0.00 0.00 90 1012.6
20260509091553 54 0 0.0 0.0 0.00 0.00 0.00 90 1012.5
20260509091048 54 0 0.0 0.9 0.00 0.00 0.00 90 1012.7
20260509090552 54 0 0.0 0.9 0.00 0.00 0.00 90 1012.7
20260509090104 54 0 0.0 0.9 0.00 0.00 0.00 90 1013.0
20260509085551 53 0 0.0 0.0 0.00 0.00 0.00 90 1013.1
20260509085051 53 0 0.0 0.0 0.00 0.00 0.00 90 1013.2
20260509084600 53 0 0.0 0.9 0.00 0.00 0.00 90 1013.5
20260509084051 53 0 0.0 0.9 0.00 0.00 0.00 90 1013.4
20260509083551 53 0 0.0 0.0 0.00 0.00 0.00 90 1013.2
20260509083059 53 0 0.0 0.0 0.00 0.00 0.00 90 1013.3
20260509082551 52 0 0.0 0.0 0.00 0.00 0.00 90 1013.1
20260509082055 52 0 0.0 0.0 0.00 0.00 0.00 89 1013.1
20260509081555 52 0 0.0 0.0 0.00 0.00 0.00 89 1013.1
20260509081052 52 0 0.0 0.0 0.00 0.00 0.00 89 1012.9
20260509080548 52 0 0.0 0.0 0.00 0.00 0.00 89 1013.0
20260509075551 52 0 0.0 0.0 0.00 0.00 0.00 88 1012.8
20260509075052 52 0 0.0 0.0 0.00 0.00 0.00 88 1013.0
20260509074556 52 0 0.0 0.0 0.00 0.00 0.00 88 1012.7
20260509074052 52 0 0.0 0.0 0.00 0.00 0.00 88 1012.8
20260509073551 52 0 0.0 0.0 0.00 0.00 0.00 88 1012.6
20260509073054 52 0 0.0 0.0 0.00 0.00 0.00 87 1012.4
20260509072555 52 0 0.0 0.0 0.00 0.00 0.00 87 1012.4
20260509072051 52 0 0.0 0.0 0.00 0.00 0.00 87 1012.3
20260509071558 52 0 0.0 0.0 0.00 0.00 0.00 87 1012.3
20260509071052 53 0 0.0 0.0 0.00 0.00 0.00 87 1012.4
20260509070552 53 0 0.0 0.0 0.00 0.00 0.00 86 1012.4
20260509070100 53 0 0.0 0.0 0.00 0.00 0.00 86 1012.7
20260509065551 53 0 0.0 0.0 0.00 0.00 0.00 86 1012.9
20260509065051 53 0 0.0 0.0 0.00 0.00 0.00 86 1013.0
20260509064602 53 0 0.0 0.0 0.00 0.00 0.00 86 1012.9
20260509064051 53 0 0.0 0.0 0.00 0.00 0.00 86 1012.8
20260509063552 53 0 0.0 0.0 0.00 0.00 0.00 86 1012.9
20260509063109 53 0 0.0 0.0 0.00 0.00 0.00 85 1013.1
20260509062551 53 0 0.0 0.0 0.00 0.00 0.00 85 1013.0
20260509062053 54 0 0.0 0.0 0.00 0.00 0.00 84 1013.1
20260509061559 54 0 0.0 0.0 0.00 0.00 0.00 85 1012.9
20260509061052 54 0 0.0 0.0 0.00 0.00 0.00 85 1013.2
20260509060554 54 0 0.0 0.0 0.00 0.00 0.00 84 1013.3
20260509055548 54 0 0.0 0.0 0.00 0.00 0.00 83 1013.6
20260509055047 55 0 0.0 0.0 0.00 0.00 0.00 83 1013.7
20260509054555 55 0 0.0 0.0 0.00 0.00 0.00 83 1013.7
20260509054052 55 0 0.0 0.0 0.00 0.00 0.00 83 1013.6
20260509053554 55 0 0.0 0.0 0.00 0.00 0.00 82 1013.9
20260509053135 55 0 0.0 0.0 0.00 0.00 0.00 82 1013.8
20260509052548 55 0 0.0 0.0 0.00 0.00 0.00 82 1013.8
20260509052048 56 0 0.0 0.0 0.00 0.00 0.00 81 1013.9
20260509051551 56 0 0.0 0.0 0.00 0.00 0.00 81 1013.8
20260509051049 56 0 0.0 0.0 0.00 0.00 0.00 81 1013.8
20260509050548 56 0 0.0 0.0 0.00 0.00 0.00 80 1013.8
20260509050056 56 0 0.0 0.0 0.00 0.00 0.00 79 1013.8
20260509045551 57 0 0.0 0.0 0.00 0.00 0.00 78 1013.8
20260509045050 57 0 0.0 0.0 0.00 0.00 0.00 79 1013.8
20260509044553 57 0 0.0 0.0 0.00 0.00 0.00 78 1013.7
20260509044048 57 0 0.0 0.0 0.00 0.00 0.00 78 1013.8
20260509043549 57 0 0.0 0.0 0.00 0.00 0.00 78 1014.0
20260509043105 58 0 0.0 0.0 0.00 0.00 0.00 77 1014.0
20260509042552 58 0 0.0 0.0 0.00 0.00 0.00 77 1014.1
20260509042053 58 0 0.0 0.0 0.00 0.00 0.00 76 1014.3
20260509041600 58 0 0.0 0.0 0.00 0.00 0.00 76 1014.3
20260509041057 58 0 0.0 0.0 0.00 0.00 0.00 76 1014.3
20260509040555 58 0 0.0 0.0 0.00 0.00 0.00 76 1014.2
20260509035551 58 0 0.0 0.0 0.00 0.00 0.00 76 1014.3
20260509035052 58 0 0.0 0.0 0.00 0.00 0.00 76 1014.3
20260509034603 58 0 0.0 0.0 0.00 0.00 0.00 75 1014.3
20260509034051 58 0 0.0 0.0 0.00 0.00 0.00 75 1014.2
20260509033551 58 0 0.0 0.0 0.00 0.00 0.00 75 1014.2
20260509033055 59 0 0.0 0.0 0.00 0.00 0.00 75 1014.3
20260509032549 59 0 0.0 0.0 0.00 0.00 0.00 75 1014.2
20260509032050 59 0 0.0 0.0 0.00 0.00 0.00 75 1014.2
20260509031605 59 0 0.0 0.0 0.00 0.00 0.00 75 1014.4
20260509031051 59 0 0.0 0.0 0.00 0.00 0.00 74 1014.4
20260509030552 60 0 0.0 0.0 0.00 0.00 0.00 74 1014.5
20260509030106 60 0 0.0 0.0 0.00 0.00 0.00 75 1014.6
20260509025553 60 0 0.0 0.0 0.00 0.00 0.00 74 1014.6
20260509025053 60 0 0.0 0.0 0.00 0.00 0.00 71 1014.7
20260509024555 60 0 0.0 0.0 0.00 0.00 0.00 72 1014.7
20260509024053 61 0 0.0 0.0 0.00 0.00 0.00 72 1014.8
20260509023556 61 0 0.0 0.0 0.00 0.00 0.00 71 1014.9
20260509023058 61 0 0.0 0.0 0.00 0.00 0.00 70 1014.6
20260509022553 61 0 0.0 0.0 0.00 0.00 0.00 69 1014.6
20260509022053 61 0 0.0 0.0 0.00 0.00 0.00 69 1014.5
20260509021551 61 0 0.0 0.0 0.00 0.00 0.00 69 1014.6
20260509021053 61 0 0.0 0.0 0.00 0.00 0.00 69 1014.5
20260509020553 62 0 0.0 0.0 0.00 0.00 0.00 69 1014.4
20260509020056 62 0 0.0 0.0 0.00 0.00 0.00 70 1014.4
20260509015553 62 0 0.0 0.0 0.00 0.00 0.00 69 1014.1
20260509015054 62 0 0.0 0.0 0.00 0.00 0.00 69 1014.2
20260509014601 62 0 0.0 0.0 0.00 0.00 0.00 69 1014.1
20260509014056 62 0 0.0 0.0 0.00 0.00 0.00 67 1014.1
20260509013553 63 0 0.0 0.0 0.00 0.00 0.00 68 1014.2
20260509013100 63 0 0.0 0.0 0.00 0.00 0.00 65 1014.1
20260509012553 63 0 0.0 0.0 0.00 0.00 0.00 65 1014.0
20260509012053 63 0 0.0 0.0 0.00 0.00 0.00 66 1014.1
20260509011554 63 0 0.0 0.0 0.00 0.00 0.00 65 1014.1
20260509011057 64 0 0.0 0.0 0.00 0.00 0.00 63 1014.1
20260509010555 64 0 0.0 0.0 0.00 0.00 0.00 63 1014.2
20260509010056 64 0 0.0 0.0 0.00 0.00 0.00 62 1014.3
20260509005555 64 0 0.0 0.0 0.00 0.00 0.00 61 1014.3
20260509005052 65 0 0.0 0.0 0.00 0.00 0.00 61 1014.2
20260509004603 65 0 0.0 0.0 0.00 0.00 0.00 60 1014.3
20260509004054 65 0 0.0 0.0 0.00 0.00 0.00 60 1014.3
20260509003554 65 0 0.0 0.0 0.00 0.00 0.00 60 1014.4
20260509003053 66 0 0.0 0.0 0.00 0.00 0.00 60 1014.4
20260509002555 66 0 0.0 0.0 0.00 0.00 0.00 59 1014.2
20260509002054 66 0 0.0 1.7 0.00 0.00 0.00 58 1014.3
20260509001556 66 0 0.0 1.7 0.00 0.00 0.00 59 1014.3
20260509001053 66 0 0.0 1.7 0.00 0.00 0.00 57 1014.4
20260509000553 67 0 0.0 1.7 0.00 0.00 0.00 58 1014.2
20260509000055 67 0 0.0 1.7 0.00 0.00 0.00 57 1014.2
20260508235553 67 0 0.0 2.6 0.00 0.00 0.00 57 1014.2
20260508235053 67 0 0.0 2.6 0.00 0.00 0.00 56 1014.1
20260508234553 67 360 0.0 2.6 0.00 0.00 0.00 57 1014.1
20260508234053 68 360 0.9 2.6 0.00 0.00 0.00 57 1014.0
20260508233553 68 360 0.0 2.6 0.00 0.00 0.00 58 1014.0
20260508233104 68 0 0.0 2.6 0.00 0.00 0.00 58 1014.0
20260508232552 68 360 0.0 2.6 0.00 0.00 0.00 57 1014.0
20260508232052 68 360 0.9 2.6 0.00 0.00 0.00 54 1014.0
20260508231600 68 0 0.0 3.5 0.00 0.00 0.00 55 1014.1
20260508231054 68 0 0.0 3.5 0.00 0.00 0.00 55 1014.1
20260508230553 68 360 0.0 3.5 0.00 0.00 0.00 56 1014.2
20260508230107 69 360 0.9 2.6 0.00 0.00 0.00 53 1014.3
20260508225553 69 0 0.0 3.5 0.00 0.00 0.00 54 1014.3
20260508225053 69 0 0.9 3.5 0.00 0.00 0.00 54 1014.3
20260508224555 69 360 0.9 3.5 0.00 0.00 0.00 53 1014.3
20260508224053 69 0 0.0 3.5 0.00 0.00 0.00 53 1014.3
20260508223553 69 360 0.0 3.5 0.00 0.00 0.00 55 1014.5
20260508223054 69 360 0.9 3.5 0.00 0.00 0.00 52 1014.4
20260508222551 69 360 0.0 1.7 0.00 0.00 0.00 53 1014.5
20260508222052 69 0 0.0 1.7 0.00 0.00 0.00 55 1014.3
20260508221558 70 0 0.0 1.7 0.00 0.00 0.00 52 1014.5
20260508221053 70 0 0.0 1.7 0.00 0.00 0.00 49 1014.6
20260508220552 70 360 0.0 3.5 0.00 0.00 0.00 52 1014.4
20260508220057 70 0 0.9 3.5 0.00 0.00 0.00 50 1014.3
20260508215552 70 0 0.0 1.7 0.00 0.00 0.00 50 1014.3
20260508215052 71 0 0.0 0.0 0.00 0.00 0.00 52 1014.3
20260508214605 71 0 0.0 0.0 0.00 0.00 0.00 51 1014.3
20260508214052 71 0 0.0 0.9 0.00 0.00 0.00 53 1014.2
20260508213553 71 0 0.0 1.7 0.00 0.00 0.00 52 1014.1
20260508213053 71 0 0.0 1.7 0.00 0.00 0.00 48 1014.0
20260508212553 71 0 0.0 1.7 0.00 0.00 0.00 47 1014.0
20260508212053 71 360 0.0 3.5 0.00 0.00 0.00 48 1014.0
20260508211559 71 0 0.0 3.5 0.00 0.00 0.00 45 1014.2
20260508211053 71 360 0.0 3.5 0.00 0.00 0.00 49 1014.4
20260508210557 71 0 0.0 3.5 0.00 0.00 0.00 48 1014.6
20260508210107 71 360 0.9 3.5 0.00 0.00 0.00 47 1014.5
20260508205552 71 360 0.9 2.6 0.00 0.00 0.00 47 1014.6
20260508205055 71 360 0.0 1.7 0.00 0.00 0.00 50 1014.7
20260508204607 70 0 0.0 2.6 0.00 0.00 0.00 52 1014.9
20260508204053 71 0 0.0 2.6 0.00 0.00 0.00 48 1014.8
20260508203557 70 0 0.0 2.6 0.00 0.00 0.00 46 1014.7
20260508203102 70 0 0.9 2.6 0.00 0.00 0.00 50 1014.8
20260508202553 70 0 0.0 3.5 0.00 0.00 0.00 49 1014.7
20260508202053 70 0 0.0 3.5 0.00 0.00 0.00 49 1014.7
20260508201558 70 0 0.9 3.5 0.00 0.00 0.00 48 1014.7
20260508201053 70 0 0.0 1.7 0.00 0.00 0.00 47 1014.7
20260508200554 70 0 0.0 1.7 0.00 0.00 0.00 48 1015.0
20260508200059 70 360 0.0 1.7 0.00 0.00 0.00 49 1015.0
20260508195552 70 0 0.0 1.7 0.00 0.00 0.00 50 1015.1
20260508195053 70 0 0.0 2.6 0.00 0.00 0.00 48 1015.4
20260508194555 70 0 0.0 2.6 0.00 0.00 0.00 48 1015.3
20260508194052 69 360 0.0 1.7 0.00 0.00 0.00 47 1015.3
20260508193552 69 0 0.0 1.7 0.00 0.00 0.00 45 1015.4
20260508193058 70 0 0.0 0.9 0.00 0.00 0.00 46 1015.7
20260508192554 70 0 0.0 1.7 0.00 0.00 0.00 41 1015.6